[[[{"header":{"parameterUnit":"kt","parameterCategory":2,"dx":1,"dy":1,"la1":30.253999710083008,"la2":30.299108505249023,"lo1":-89.0895004272461,"lo2":-89.04439544677734,"nx":28,"ny":28,"refTime":"2022-09-19T21:00:00:Z","depth":0,"parameterNumber":1,"parameterNumberName":"U-component_of_WINDS"},"data":[-0.698,-0.7036,-0.7076,-0.7162,-0.7213,-0.728,-0.7317,-0.7371,-0.7425,-0.7514,-0.7573,-0.7624,-0.7699,-0.7783,-0.7853,-0.7876,-0.7903,-0.7892,-0.7921,-0.7924,-0.7927,-0.7931,-0.7918,-0.7897,-0.7897,-0.7912,-0.7912,-0.7912,-0.698,-0.7029,-0.7086,-0.7168,-0.7218,-0.7252,-0.7322,-0.7363,-0.7423,-0.7491,-0.7551,-0.7634,-0.7707,-0.7787,-0.7866,-0.7899,-0.7922,-0.7917,-0.7916,-0.7928,-0.7932,-0.7918,-0.7898,-0.7898,-0.7898,-0.7898,-0.7898,-0.7898,-0.6991,-0.7023,-0.7095,-0.7158,-0.7211,-0.7267,-0.7307,-0.7366,-0.7425,-0.7507,-0.7548,-0.7619,-0.7698,-0.7815,-0.7866,-0.7926,-0.7939,-0.7949,-0.7952,-0.7954,-0.7949,-0.7924,-0.7942,-0.7942,-0.7942,-0.7942,-0.7942,0,-0.7012,-0.7043,-0.7099,-0.7168,-0.7216,-0.7275,-0.7336,-0.7362,-0.7448,-0.7493,-0.7564,-0.7612,-0.771,-0.7784,-0.7868,-0.792,-0.7965,-0.7974,-0.7982,-0.7962,-0.7934,-0.7951,-0.7957,-0.7974,-0.7974,-0.7975,-0.7975,-0.7975,-0.7026,-0.7059,-0.7155,-0.719,-0.7233,-0.7288,-0.733,-0.7403,-0.7445,-0.7534,-0.7562,-0.7636,-0.7699,-0.7809,-0.7884,-0.7959,-0.7982,-0.7983,-0.7994,-0.7974,-0.7984,-0.7981,-0.7986,-0.798,-0.7979,-0.7979,-0.7978,0,-0.7031,-0.7097,-0.7161,-0.7254,-0.7279,-0.7311,-0.7393,-0.7431,-0.7486,-0.7546,-0.7564,-0.7652,-0.7722,-0.7797,-0.7893,-0.7931,-0.7992,-0.8012,-0.7965,-0.7973,-0.7983,-0.7982,-0.8001,-0.8008,-0.8029,-0.8028,-0.8028,0,-0.707,-0.7111,-0.7207,-0.7241,-0.729,-0.736,-0.7408,-0.746,-0.7526,-0.7574,-0.7634,-0.7679,-0.7767,-0.7824,-0.7879,-0.7943,-0.7961,-0.7994,-0.8008,-0.7989,-0.7985,-0.8015,-0.8016,-0.8038,-0.8038,-0.8038,-0.8038,0,-0.707,-0.717,-0.7225,-0.7259,-0.7363,-0.7389,-0.7434,-0.7509,-0.7551,-0.7618,-0.7646,-0.772,-0.7761,-0.7819,-0.7888,-0.7893,-0.7968,-0.7988,-0.8002,-0.8,-0.8015,-0.8013,-0.801,-0.8038,-0.8038,-0.8038,-0.8038,0,-0.7112,-0.7173,-0.7242,-0.7331,-0.7355,-0.7392,-0.7467,-0.7516,-0.7591,-0.7627,-0.7681,-0.773,-0.779,-0.7805,-0.789,-0.7875,-0.7913,-0.795,-0.7953,-0.7963,-0.7978,-0.7967,-0.7956,-0.7958,-0.7973,-0.7972,-0.7972,0,-0.7095,-0.7182,-0.7242,-0.7308,-0.7359,-0.742,-0.7464,-0.7528,-0.7579,-0.7633,-0.7692,-0.7753,-0.7779,-0.7809,-0.7842,-0.7906,-0.7925,-0.7905,-0.7988,-0.799,-0.7965,-0.7956,-0.7935,-0.795,-0.7966,-0.7967,-0.7967,0,-0.709,-0.7213,-0.722,-0.7262,-0.7354,-0.7398,-0.7448,-0.7522,-0.7554,-0.762,-0.7666,-0.7754,-0.7778,-0.7826,-0.7875,-0.7904,-0.7914,-0.7927,-0.793,-0.7923,-0.7969,-0.7949,-0.7951,-0.7941,-0.7942,-0.7942,-0.7962,0,-0.7139,-0.719,-0.7213,-0.7301,-0.7345,-0.739,-0.7465,-0.7503,-0.7543,-0.7595,-0.7664,-0.7738,-0.7817,-0.7839,-0.7879,-0.7922,-0.7927,-0.7952,-0.7973,-0.7966,-0.7975,-0.7978,-0.7954,-0.7955,-0.7956,-0.7957,0,0,-0.7106,-0.7181,-0.7245,-0.7294,-0.7336,-0.7398,-0.744,-0.7489,-0.7586,-0.7615,-0.7626,-0.776,-0.782,-0.7897,-0.79,-0.7932,-0.7948,-0.7947,-0.7968,-0.7969,-0.797,-0.7978,-0.798,-0.7958,-0.7958,-0.7959,-0.7959,0,-0.7139,-0.7191,-0.7229,-0.7281,-0.736,-0.7413,-0.7422,-0.7513,-0.7549,-0.7615,-0.7669,-0.772,-0.7825,-0.7882,-0.7924,-0.794,-0.7979,-0.7958,-0.794,-0.7975,-0.7974,-0.7974,-0.7981,-0.7983,-0.7961,-0.7961,-0.7961,0,-0.7147,-0.7211,-0.7237,-0.7332,-0.7385,-0.7436,-0.7474,-0.7526,-0.7566,-0.7636,-0.7701,-0.7752,-0.7835,-0.7896,-0.7927,-0.7939,-0.8003,-0.7996,-0.7993,-0.7998,-0.8035,-0.8035,-0.8034,-0.804,-0.804,-0.8039,0,0,-0.7165,-0.7213,-0.7305,-0.7344,-0.7373,-0.7452,-0.7487,-0.753,-0.7599,-0.7627,-0.7693,-0.7762,-0.7824,-0.7864,-0.7927,-0.7983,-0.8007,-0.8003,-0.7999,-0.7996,-0.7999,-0.8035,-0.8035,-0.8039,-0.8039,-0.8039,0,0,-0.7175,-0.7282,-0.7309,-0.7362,-0.7424,-0.752,-0.7542,-0.7579,-0.7642,-0.7645,-0.7724,-0.7746,-0.7805,-0.7854,-0.7842,-0.7936,-0.7954,-0.7959,-0.7901,-0.7898,-0.7894,-0.7881,-0.7894,0,0,0,0,0,-0.7246,-0.7268,-0.7291,-0.7311,-0.7433,-0.7506,-0.7523,-0.7586,-0.7597,-0.7614,-0.7676,-0.7715,-0.7864,-0.7855,-0.7875,-0.7888,-0.8036,-0.8037,-0.8037,-0.7977,-0.7972,-0.7968,0,0,0,0,0,0,-0.7254,-0.7278,-0.7291,-0.7386,-0.7414,-0.7506,-0.754,-0.7558,-0.7597,-0.7603,-0.7702,-0.7718,-0.7776,-0.7849,-0.7866,-0.7877,-0.7888,-0.8037,-0.8037,-0.8037,-0.7975,-0.7971,-0.7968,0,0,0,0,0,-0.7261,-0.728,-0.7457,-0.7387,-0.7411,-0.75,-0.7539,-0.7555,-0.7587,-0.7682,-0.7699,-0.7631,-0.7774,-0.7794,-0.786,-0.7868,-0.7876,-0.7883,-0.8037,-0.8037,-0.8037,-0.7973,0,0,0,0,0,0,-0.7266,-0.7296,-0.7463,-0.7473,-0.7382,-0.7496,-0.7516,-0.7551,-0.7664,-0.7682,-0.7615,-0.7618,-0.7774,-0.7789,-0.7804,-0.786,-0.7867,-0.7873,-0.7877,-0.8037,-0.8037,-0.8038,0,0,0,0,0,0,-0.7286,-0.7304,-0.7469,-0.7459,-0.7468,-0.7493,-0.751,-0.7576,-0.7665,-0.7591,-0.7598,-0.7615,-0.7753,-0.7785,-0.7797,-0.7897,-0.7859,-0.7866,-0.787,-0.7873,-0.8037,-0.8038,0,0,0,0,0,0,-0.7295,-0.731,-0.7457,-0.7464,-0.7472,-0.7589,-0.7552,-0.7674,-0.7652,-0.7585,-0.7652,-0.7653,-0.7749,-0.7762,-0.7792,-0.7887,-0.7895,-0.786,-0.7864,-0.7867,-0.7869,0,0,0,0,0,0,0,-0.7302,-0.7183,-0.7404,-0.7468,-0.7475,-0.7565,-0.7568,-0.757,-0.7652,-0.7652,-0.7652,-0.7652,-0.7824,-0.7831,-0.7838,-0.7879,0,0,-0.7859,-0.7862,0,0,0,0,0,0,0,0,-0.7179,-0.7182,-0.7404,-0.7406,-0.7408,-0.7565,-0.7568,-0.757,-0.7652,-0.7652,-0.7652,-0.7652,-0.7826,-0.7832,-0.7837,0,0,0,0,0,0,0,0,0,0,0,0,0,0,0,-0.7405,-0.7406,0,-0.7566,-0.7568,-0.7569,-0.7652,-0.7652,-0.7652,-0.7652,-0.7828,-0.7832,-0.7837,0,0,0,0,0,0,0,0,0,0,0,0,0,0,0,0,0,0,0,0,0,0,0,0,0,0,0,0,0,0,0,0,0,0,0,0,0,0,0,0,0,0,0,0,0,0,0,0,0,0,0,0,0,0,0,0,0,0,0,0,0,0,0,0,0,0,0,0,0]}],[{"header":{"parameterUnit":"kt","parameterCategory":2,"dx":1,"dy":1,"la1":30.253999710083008,"la2":30.299108505249023,"lo1":-89.0895004272461,"lo2":-89.04439544677734,"nx":28,"ny":28,"refTime":"2022-09-19T21:00:00:Z","depth":0,"parameterNumber":2,"parameterNumberName":"V-component_of_WINDS"},"data":[-6.1739,-6.1727,-6.1718,-6.1698,-6.1685,-6.167,-6.166,-6.1646,-6.1631,-6.161,-6.1594,-6.1579,-6.1556,-6.1533,-6.1514,-6.1506,-6.15,-6.1507,-6.1497,-6.1478,-6.1475,-6.1471,-6.1476,-6.1506,-6.1506,-6.1519,-6.152,-6.152,-6.1739,-6.1727,-6.1713,-6.1691,-6.1679,-6.1668,-6.1648,-6.1637,-6.1622,-6.1602,-6.1584,-6.1562,-6.1541,-6.1513,-6.149,-6.1482,-6.1473,-6.1477,-6.1477,-6.1474,-6.1454,-6.1458,-6.1485,-6.1485,-6.1485,-6.1485,-6.1485,-6.1485,-6.1735,-6.1727,-6.1707,-6.169,-6.1675,-6.166,-6.1649,-6.163,-6.1612,-6.1588,-6.1572,-6.1552,-6.1526,-6.1487,-6.1469,-6.1452,-6.1444,-6.1442,-6.1442,-6.1442,-6.1447,-6.1438,-6.1446,-6.1446,-6.1446,-6.1445,-6.1445,0,-6.1728,-6.172,-6.1703,-6.1684,-6.167,-6.1652,-6.1632,-6.1624,-6.1594,-6.1579,-6.1558,-6.1542,-6.1509,-6.1485,-6.1456,-6.1436,-6.1416,-6.141,-6.141,-6.1419,-6.1435,-6.143,-6.1401,-6.1409,-6.1409,-6.1409,-6.1408,-6.1408,-6.1726,-6.1715,-6.1685,-6.1675,-6.166,-6.1642,-6.1628,-6.1601,-6.1587,-6.1556,-6.1548,-6.1523,-6.1501,-6.1463,-6.1433,-6.1406,-6.1395,-6.1402,-6.139,-6.1403,-6.1399,-6.1401,-6.1402,-6.1404,-6.1405,-6.1405,-6.1405,0,-6.1727,-6.1704,-6.1681,-6.1649,-6.1641,-6.163,-6.1602,-6.1589,-6.1568,-6.1547,-6.1541,-6.1506,-6.1481,-6.145,-6.1412,-6.1396,-6.1379,-6.1368,-6.1391,-6.1388,-6.1393,-6.1394,-6.1405,-6.1407,-6.1373,-6.1373,-6.1373,0,-6.1715,-6.17,-6.1667,-6.1655,-6.1638,-6.161,-6.1593,-6.1573,-6.1548,-6.1531,-6.1504,-6.1488,-6.1448,-6.1428,-6.1403,-6.1382,-6.1373,-6.136,-6.1354,-6.1364,-6.1366,-6.1353,-6.1352,-6.1336,-6.1335,-6.1335,-6.1335,0,-6.172,-6.168,-6.166,-6.1647,-6.1607,-6.1598,-6.158,-6.1549,-6.1533,-6.1506,-6.1496,-6.1464,-6.1447,-6.1424,-6.1393,-6.1388,-6.1365,-6.135,-6.1352,-6.1353,-6.1347,-6.1348,-6.1368,-6.1335,-6.1335,-6.1335,-6.1335,0,-6.1705,-6.1682,-6.1654,-6.1622,-6.1612,-6.1596,-6.1567,-6.1545,-6.1514,-6.1498,-6.1475,-6.1451,-6.1427,-6.1417,-6.1384,-6.1386,-6.1371,-6.1355,-6.1354,-6.135,-6.1339,-6.1357,-6.1377,-6.1379,-6.1349,-6.1349,-6.1349,0,-6.1719,-6.1683,-6.1658,-6.163,-6.1609,-6.1583,-6.1564,-6.1536,-6.1513,-6.149,-6.1463,-6.1434,-6.1418,-6.1404,-6.1392,-6.1362,-6.1358,-6.1361,-6.1327,-6.1326,-6.1341,-6.1359,-6.1371,-6.1377,-6.1349,-6.1349,-6.1349,0,-6.1725,-6.1676,-6.1672,-6.1656,-6.1614,-6.1593,-6.1571,-6.1537,-6.1525,-6.1492,-6.1473,-6.1428,-6.1416,-6.1391,-6.1365,-6.1354,-6.136,-6.134,-6.1339,-6.1348,-6.1344,-6.1358,-6.1359,-6.1345,-6.1345,-6.1345,-6.135,0,-6.1717,-6.1692,-6.168,-6.164,-6.1619,-6.1596,-6.1562,-6.1544,-6.1525,-6.1499,-6.1467,-6.1427,-6.1387,-6.1376,-6.1353,-6.1337,-6.1334,-6.1319,-6.1304,-6.1315,-6.1316,-6.1316,-6.1307,-6.1307,-6.1306,-6.1306,0,0,-6.1736,-6.17,-6.1669,-6.1646,-6.1626,-6.1595,-6.1575,-6.155,-6.15,-6.1486,-6.1479,-6.1409,-6.1375,-6.1339,-6.1339,-6.132,-6.1315,-6.1309,-6.131,-6.131,-6.1311,-6.1312,-6.1313,-6.1304,-6.1304,-6.1304,-6.1304,0,-6.1726,-6.1698,-6.1679,-6.1654,-6.1614,-6.1588,-6.1584,-6.1537,-6.1519,-6.1484,-6.1455,-6.1429,-6.137,-6.1341,-6.1318,-6.1315,-6.1292,-6.1304,-6.1317,-6.1305,-6.1307,-6.1308,-6.131,-6.1311,-6.1302,-6.1302,-6.1302,0,-6.1728,-6.1696,-6.1682,-6.1633,-6.1605,-6.1579,-6.1559,-6.153,-6.1511,-6.147,-6.1435,-6.1407,-6.1361,-6.1329,-6.1312,-6.1303,-6.1274,-6.1273,-6.1275,-6.1272,-6.1258,-6.126,-6.1261,-6.1241,-6.1241,-6.1241,0,0,-6.1723,-6.1698,-6.1651,-6.1627,-6.1612,-6.1571,-6.1552,-6.1529,-6.1491,-6.1476,-6.1438,-6.14,-6.1366,-6.1343,-6.1308,-6.1277,-6.1265,-6.1267,-6.127,-6.1272,-6.1271,-6.1257,-6.1259,-6.1241,-6.1241,-6.1241,0,0,-6.1718,-6.1665,-6.1652,-6.162,-6.1588,-6.1536,-6.1522,-6.1503,-6.1468,-6.1466,-6.1421,-6.1408,-6.1376,-6.1347,-6.1351,-6.1302,-6.1288,-6.1286,-6.1322,-6.1325,-6.1328,-6.1335,-6.1319,0,0,0,0,0,-6.1689,-6.1673,-6.1662,-6.1651,-6.1584,-6.1544,-6.1534,-6.15,-6.1494,-6.1484,-6.145,-6.1425,-6.1341,-6.1344,-6.1332,-6.1326,-6.124,-6.124,-6.124,-6.1279,-6.1283,-6.1286,0,0,0,0,0,0,-6.1684,-6.1671,-6.1662,-6.1611,-6.1595,-6.1544,-6.1526,-6.1516,-6.1494,-6.149,-6.1433,-6.1423,-6.1389,-6.1348,-6.1337,-6.1333,-6.1322,-6.124,-6.124,-6.124,-6.128,-6.1283,-6.1286,0,0,0,0,0,-6.168,-6.167,-6.1572,-6.1611,-6.1597,-6.1548,-6.1526,-6.1518,-6.1499,-6.1444,-6.1434,-6.1475,-6.139,-6.1379,-6.1341,-6.1339,-6.1329,-6.1325,-6.124,-6.124,-6.124,-6.1282,0,0,0,0,0,0,-6.1677,-6.166,-6.1568,-6.1563,-6.1614,-6.155,-6.1539,-6.1519,-6.1453,-6.1444,-6.1484,-6.1482,-6.1391,-6.1381,-6.1373,-6.1343,-6.1335,-6.1331,-6.1329,-6.124,-6.124,-6.1241,0,0,0,0,0,0,-6.1666,-6.1656,-6.1565,-6.1571,-6.1566,-6.1552,-6.1542,-6.1503,-6.1453,-6.1497,-6.1494,-6.1484,-6.1402,-6.1384,-6.1377,-6.1316,-6.1339,-6.1336,-6.1333,-6.1332,-6.124,-6.124,0,0,0,0,0,0,-6.1661,-6.1652,-6.1572,-6.1568,-6.1564,-6.1499,-6.1516,-6.1447,-6.1463,-6.15,-6.1463,-6.1463,-6.1404,-6.1397,-6.1379,-6.1322,-6.1318,-6.1339,-6.1337,-6.1335,-6.1334,0,0,0,0,0,0,0,-6.1657,-6.1723,-6.1601,-6.1566,-6.1562,-6.1512,-6.151,-6.1509,-6.1463,-6.1463,-6.1463,-6.1463,-6.1361,-6.1357,-6.1352,-6.1327,0,0,-6.134,-6.1338,0,0,0,0,0,0,0,0,-6.1725,-6.1723,-6.1601,-6.16,-6.1599,-6.1512,-6.151,-6.1509,-6.1463,-6.1463,-6.1463,-6.1463,-6.1359,-6.1356,-6.1353,0,0,0,0,0,0,0,0,0,0,0,0,0,0,0,-6.1601,-6.16,0,-6.1511,-6.151,-6.1509,-6.1463,-6.1463,-6.1463,-6.1463,-6.1359,-6.1356,-6.1353,0,0,0,0,0,0,0,0,0,0,0,0,0,0,0,0,0,0,0,0,0,0,0,0,0,0,0,0,0,0,0,0,0,0,0,0,0,0,0,0,0,0,0,0,0,0,0,0,0,0,0,0,0,0,0,0,0,0,0,0,0,0,0,0,0,0,0,0,0]}]]]